THOR BURNER 2 R/B, 2741

Orbit data source: Space-Track

THOR BURNER 2 R/B, 2741 is space debris in SSO originally from a launch on Wed, 08 Feb 1967 UTC launched from the Air Force Western Test Range (AFWTR). Debris objects in space refer to the collection of defunct objects orbiting the Earth. Examples of debris include non-operational satellites, rocket bodies, and fragments generated from explosions, collisions, or faulty payload assembly.

Loading next visibility...
Identifier
2741, 1967-010B
Orbit
SSO
Country
Flag of USUS
Related business
Manufacturer
Thiokol/TE
Mission
Spacecraft
Bus & Motor
STAR 37, Unknown motor
Mass
136 kg wet, 136 kg dry
Launch date (UTC)
1967-02-08 (59 years ago)
Launch vehicle
Unknown
Launch site
Air Force Western Test Range (AFWTR)
Object type
Payload
Rocket body
Debris
Shape & HBR
Unknown
Radar Cross Section
Large (>1 m²)

Expand to show TLE details & history
Last TLE update: 17 hours ago

TLE from 17 hours ago
0 THOR BURNER 2 R/B
1 02741U 67010B   25308.75530873  .00000231  00000-0  10801-3 0  9993
2 02741  98.9455 251.3506 0051838 215.8556 143.9142 14.29118033 53212
Epoch: 2025-11-04T18:07Z
TLE epoch observation values (Epoch: 2025-11-04T18:07:38.674Z)
Latitude
0.00005°
Longitude
-64.79833°
Altitude
827.721 km
Speed
7.424 km/s
True Right ascension
16h 45m 24s
True Declination
0° 00' 00"
Sunlit
Object was in daylight at epoch
Visualization orbit readout
Latitude
Unknown
Longitude
Unknown
Altitude
Unknown
Speed
Unknown
Apparent Right ascension
Unknown
Apparent Declination
Unknown
Sunlit
N/A
Visualization observer readout
Local Sidereal Time
06:47:22
Azimuth
Unknown
Elevation
Unknown
Doppler factor
Unknown
Orbital elements
Apogee altitude
829.006 km
Perigee altitude
754.67 km
Semi-major axis
7,169.975 km
Eccentricity
0.00518
Inclination
98.9455°
RAAN
251.3506°
Arg. of periapsis
215.8556°
True anomaly
144.26225°
Mean anomaly
143.9142°
Eccentric anomaly
144.08841°
Mean motion
3.57492 °/min
Orbital period
100.7 mins
BSTAR
0.00010801
Loading maneuver chart data...
Computing Atmospheric mass density...
Loading historical data...
Loading historical data...
Loading historical data...
Loading historical data...
Loading historical data...
Loading historical data...
Loading historical data...
Other satellites on launch #10 in the year 1967 (1967-02-08 UTC)

Documentation

Showing up to 5 results
|